• Em Portugal
  • Lista de países
  • Para 7 dias
  • Temperatura da água
  • Mapas de satélite
  • Mapa do tempo
  • Widgets de tempo
  • user-avatar
    Iniciar Sessão

    Previsão horária em Malanje

    Hoje, 15 Dezembro, Sexta-feira

    Tempo Temperatura Precipitação Vento Pressão Humidade
    00:00 +20°C° 0 mm 1 m/s 665 mmHg 98%
    01:00 +19°C° 0 mm 1 m/s 665 mmHg 99%
    02:00 +19°C° 0 mm 1 m/s 665 mmHg 99%
    03:00 +19°C° 0 mm 1 m/s 665 mmHg 99%
    04:00 +19°C° 0 mm 1 m/s 664 mmHg 99%
    05:00 +20°C° 0 mm 1 m/s 665 mmHg 98%
    06:00 +20°C° 0 mm 1 m/s 665 mmHg 97%
    07:00 +21°C° 0 mm 1 m/s 666 mmHg 96%
    08:00 +22°C° 0,1 mm 1 m/s 666 mmHg 92%
    09:00 +23°C° 0,1 mm 1 m/s 666 mmHg 88%
    10:00 +25°C° 0,1 mm 1 m/s 666 mmHg 83%
    11:00 +26°C° 0,9 mm 1 m/s 666 mmHg 80%
    12:00 +27°C° 0,9 mm 1 m/s 665 mmHg 77%
    13:00 +29°C° 0,9 mm 1 m/s 665 mmHg 74%
    14:00 +28°C° 3 mm 1 m/s 664 mmHg 78%
    15:00 +27°C° 3 mm 1 m/s 664 mmHg 82%
    16:00 +26°C° 3 mm 1 m/s 663 mmHg 86%
    17:00 +25°C° 3,1 mm 1 m/s 663 mmHg 89%
    18:00 +21°C° 3,1 mm 0 m/s 663 mmHg 91%
    19:00 +20°C° 3,1 mm 0 m/s 663 mmHg 93%
    20:00 +20°C° 0,5 mm 0 m/s 664 mmHg 94%
    21:00 +19°C° 0,5 mm 0 m/s 664 mmHg 94%
    22:00 +19°C° 0,5 mm 0 m/s 665 mmHg 95%
    23:00 +19°C° 0,3 mm 0 m/s 665 mmHg 95%

    Amanhã, 16 Dezembro, Sábado

    Tempo Temperatura Precipitação Vento Pressão Humidade
    00:00 +19°C° 0,3 mm 0 m/s 664 mmHg 96%
    01:00 +19°C° 0,3 mm 0 m/s 664 mmHg 96%
    02:00 +20°C° 0,4 mm 1 m/s 664 mmHg 97%
    03:00 +20°C° 0,4 mm 1 m/s 664 mmHg 97%
    04:00 +20°C° 0,4 mm 1 m/s 664 mmHg 98%
    05:00 +20°C° 0,4 mm 1 m/s 664 mmHg 98%
    06:00 +21°C° 0,4 mm 1 m/s 665 mmHg 98%
    07:00 +21°C° 0,4 mm 1 m/s 665 mmHg 98%
    08:00 +21°C° 0,7 mm 1 m/s 665 mmHg 97%
    09:00 +22°C° 0,7 mm 1 m/s 666 mmHg 96%
    10:00 +23°C° 0,7 mm 1 m/s 666 mmHg 94%
    11:00 +24°C° 0,4 mm 2 m/s 665 mmHg 91%
    12:00 +25°C° 0,4 mm 2 m/s 665 mmHg 87%
    13:00 +26°C° 0,4 mm 2 m/s 665 mmHg 83%
    14:00 +25°C° 1,6 mm 1 m/s 665 mmHg 87%
    15:00 +24°C° 1,6 mm 1 m/s 664 mmHg 90%
    16:00 +24°C° 1,6 mm 1 m/s 664 mmHg 94%
    17:00 +23°C° 1,7 mm 1 m/s 664 mmHg 95%
    18:00 +22°C° 1,7 mm 1 m/s 664 mmHg 96%
    19:00 +21°C° 1,7 mm 1 m/s 664 mmHg 96%
    20:00 +21°C° 0,6 mm 1 m/s 665 mmHg 97%
    21:00 +21°C° 0,6 mm 1 m/s 665 mmHg 97%
    22:00 +21°C° 0,6 mm 1 m/s 666 mmHg 98%
    23:00 +20°C° 0,2 mm 1 m/s 665 mmHg 98%

    Depois de amanhã, 17 Dezembro, Domingo

    Tempo Temperatura Precipitação Vento Pressão Humidade
    00:00 +20°C° 0,2 mm 1 m/s 665 mmHg 98%
    01:00 +20°C° 0,2 mm 1 m/s 664 mmHg 98%
    02:00 +20°C° 0 mm 1 m/s 664 mmHg 98%
    03:00 +20°C° 0 mm 1 m/s 664 mmHg 98%
    04:00 +19°C° 0 mm 1 m/s 664 mmHg 98%
    05:00 +20°C° 0 mm 1 m/s 664 mmHg 97%
    06:00 +20°C° 0 mm 1 m/s 664 mmHg 97%
    07:00 +20°C° 0 mm 1 m/s 665 mmHg 96%
    08:00 +22°C° 0,4 mm 1 m/s 665 mmHg 92%
    09:00 +23°C° 0,4 mm 1 m/s 666 mmHg 88%
    10:00 +24°C° 0,4 mm 2 m/s 667 mmHg 84%
    11:00 +25°C° 0,8 mm 2 m/s 666 mmHg 82%
    12:00 +26°C° 0,8 mm 2 m/s 665 mmHg 80%
    13:00 +26°C° 0,8 mm 2 m/s 665 mmHg 77%
    14:00 +26°C° 0,6 mm 2 m/s 664 mmHg 80%
    15:00 +26°C° 0,6 mm 2 m/s 664 mmHg 83%
    16:00 +25°C° 0,6 mm 2 m/s 663 mmHg 86%
    17:00 +24°C° 0,4 mm 2 m/s 664 mmHg 90%
    18:00 +23°C° 0,4 mm 2 m/s 664 mmHg 93%
    19:00 +21°C° 0,4 mm 1 m/s 664 mmHg 97%
    20:00 +21°C° 0,5 mm 1 m/s 665 mmHg 97%
    21:00 +21°C° 0,5 mm 1 m/s 665 mmHg 97%
    22:00 +21°C° 0,5 mm 1 m/s 666 mmHg 98%
    23:00 +20°C° 0,1 mm 1 m/s 665 mmHg 98%

    18 Dezembro, Segunda-feira

    Tempo Temperatura Precipitação Vento Pressão Humidade
    00:00 +20°C° 0,1 mm 1 m/s 665 mmHg 98%
    01:00 +20°C° 0,1 mm 1 m/s 664 mmHg 98%
    02:00 +20°C° 0 mm 1 m/s 664 mmHg 98%
    03:00 +20°C° 0 mm 1 m/s 664 mmHg 98%
    04:00 +17°C° 0 mm 0 m/s 664 mmHg 98%
    05:00 +18°C° 0 mm 0 m/s 664 mmHg 97%
    06:00 +18°C° 0 mm 0 m/s 665 mmHg 97%
    07:00 +19°C° 0 mm 0 m/s 665 mmHg 96%
    08:00 +22°C° 0,1 mm 1 m/s 665 mmHg 91%
    09:00 +23°C° 0,1 mm 1 m/s 666 mmHg 86%
    10:00 +25°C° 0,1 mm 1 m/s 666 mmHg 82%
    11:00 +25°C° 0,5 mm 1 m/s 666 mmHg 78%
    12:00 +26°C° 0,5 mm 2 m/s 665 mmHg 74%
    13:00 +27°C° 0,5 mm 2 m/s 665 mmHg 70%
    14:00 +26°C° 0,8 mm 2 m/s 664 mmHg 77%
    15:00 +26°C° 0,8 mm 2 m/s 664 mmHg 83%
    16:00 +25°C° 0,8 mm 2 m/s 663 mmHg 90%
    17:00 +24°C° 0,5 mm 2 m/s 663 mmHg 92%
    18:00 +21°C° 0,5 mm 2 m/s 663 mmHg 94%
    19:00 +21°C° 0,5 mm 1 m/s 663 mmHg 97%
    20:00 +21°C° 0,2 mm 1 m/s 664 mmHg 97%
    21:00 +21°C° 0,2 mm 1 m/s 664 mmHg 98%
    22:00 +20°C° 0,2 mm 2 m/s 665 mmHg 98%
    23:00 +20°C° 0,3 mm 1 m/s 664 mmHg 98%

    19 Dezembro, Terça-feira

    Tempo Temperatura Precipitação Vento Pressão Humidade
    00:00 +20°C° 0,3 mm 1 m/s 664 mmHg 98%
    01:00 +20°C° 0,3 mm 1 m/s 664 mmHg 99%
    02:00 +20°C° 0,1 mm 1 m/s 663 mmHg 99%
    03:00 +20°C° 0,1 mm 1 m/s 663 mmHg 99%
    04:00 +20°C° 0,1 mm 1 m/s 663 mmHg 99%
    05:00 +20°C° 0 mm 1 m/s 664 mmHg 98%
    06:00 +20°C° 0 mm 1 m/s 664 mmHg 97%
    07:00 +21°C° 0 mm 1 m/s 665 mmHg 97%
    08:00 +22°C° 0,4 mm 1 m/s 665 mmHg 92%
    09:00 +23°C° 0,4 mm 1 m/s 665 mmHg 88%
    10:00 +25°C° 0,4 mm 1 m/s 665 mmHg 84%
    11:00 +25°C° 1 mm 2 m/s 665 mmHg 83%
    12:00 +25°C° 1 mm 2 m/s 664 mmHg 83%
    13:00 +26°C° 1 mm 2 m/s 664 mmHg 83%
    14:00 +25°C° 1 mm 2 m/s 664 mmHg 86%
    15:00 +25°C° 1 mm 2 m/s 663 mmHg 89%
    16:00 +24°C° 1 mm 2 m/s 663 mmHg 92%
    17:00 +23°C° 1,2 mm 2 m/s 663 mmHg 93%
    18:00 +22°C° 1,2 mm 1 m/s 664 mmHg 95%
    19:00 +21°C° 1,2 mm 1 m/s 664 mmHg 96%
    20:00 +21°C° 0,5 mm 1 m/s 664 mmHg 97%
    21:00 +20°C° 0,5 mm 1 m/s 665 mmHg 97%
    22:00 +20°C° 0,5 mm 1 m/s 665 mmHg 97%
    23:00 +20°C° 0,4 mm 1 m/s 665 mmHg 97%

    20 Dezembro, Quarta-feira

    Tempo Temperatura Precipitação Vento Pressão Humidade
    00:00 +20°C° 0,4 mm 1 m/s 664 mmHg 98%
    01:00 +18°C° 0,4 mm 0 m/s 664 mmHg 98%
    02:00 +18°C° 0,1 mm 0 m/s 664 mmHg 98%
    03:00 +17°C° 0,1 mm 0 m/s 664 mmHg 98%
    04:00 +17°C° 0,1 mm 0 m/s 664 mmHg 98%
    05:00 +18°C° 0,1 mm 0 m/s 664 mmHg 98%
    06:00 +18°C° 0,1 mm 0 m/s 665 mmHg 98%
    07:00 +18°C° 0,1 mm 0 m/s 665 mmHg 97%
    08:00 +20°C° 0,5 mm 0 m/s 665 mmHg 94%
    09:00 +21°C° 0,5 mm 0 m/s 666 mmHg 91%
    10:00 +22°C° 0,5 mm 0 m/s 666 mmHg 88%
    11:00 +23°C° 1,3 mm 0 m/s 666 mmHg 85%
    12:00 +25°C° 1,3 mm 1 m/s 665 mmHg 83%
    13:00 +26°C° 1,3 mm 1 m/s 665 mmHg 80%
    14:00 +26°C° 1 mm 1 m/s 665 mmHg 82%
    15:00 +26°C° 1 mm 1 m/s 664 mmHg 83%
    16:00 +25°C° 1 mm 1 m/s 664 mmHg 85%
    17:00 +24°C° 1,4 mm 1 m/s 664 mmHg 88%
    18:00 +23°C° 1,4 mm 1 m/s 664 mmHg 91%
    19:00 +21°C° 1,4 mm 1 m/s 665 mmHg 94%
    20:00 +19°C° 0,3 mm 0 m/s 665 mmHg 94%
    21:00 +19°C° 0,3 mm 0 m/s 665 mmHg 94%
    22:00 +18°C° 0,3 mm 0 m/s 665 mmHg 94%
    23:00 +18°C° 0,4 mm 0 m/s 665 mmHg 95%
    Mostrar mais